Hourly Data Report for July 29, 2021

WIARTON A
ONTARIO
Current Station Operator: NAVCAN

44°44'39.000" N
81°06'31.000" W
221.90 m
6119499
71633
YVV

Download Data

Hourly Data (July 2021)
Hourly Data Report for July 29, 2021
TIME
LST
Temp Definition
°C
Dew Point Definition
°C
Rel Hum Definition
%
Precip. Amount Definition
mm

Wind Dir Definition
10's deg

Wind Spd Definition
km/h
Visibility Definition
km
Stn Press Definition
kPa
Hmdx Definition


Wind Chill Definition


Weather Definition


00:00 17.6 15.4 87   16 8 24.1 98.74     LegendNANA
01:00 18.9 16.6 86   19 18 24.1 98.71     Cloudy
02:00 18.7 16.1 85   18 15 24.1 98.59     LegendNANA
03:00 18.9 15.3 79   17 17 24.1 98.48     LegendNANA
04:00 18.6 15.4 82   16 16 24.1 98.38     Cloudy
05:00 17.3 15.8 91   17 13 9.7 98.37     Moderate Rain Showers
06:00 16.8 16.6 99   16 16 6.4 98.30     Rain Showers, Fog
07:00 17.2 17.0 99   17 15 6.4 98.25     Rain Showers, Fog
08:00 17.9 17.6 98   20 8 6.4 98.24     Fog
09:00 18.5 18.1 97   36 2 6.4 98.20     Fog
10:00 19.0 18.6 97   3 4 6.4 98.17     Fog
11:00 20.0 19.2 95   32 3 9.7 98.18 27   Fog
12:00 20.8 19.0 89   29 5 9.7 98.17 28   Fog
13:00 21.1 19.3 89   29 7 9.7 98.17 28   Fog
14:00 20.2 19.0 92   35 5 16.1 98.21 27   LegendNANA
15:00 21.0 18.3 85   3 9 16.1 98.26 27   LegendNANA
16:00 21.7 18.3 81   2 9 19.3 98.29 28   Mostly Cloudy
17:00 22.4 18.2 77   34 7 24.1 98.29 29   LegendNANA
18:00 22.1 18.1 78   29 8 24.1 98.34 28   LegendNANA
19:00 21.2 17.7 80   30 8 24.1 98.38 27   Clear
20:00 19.7 17.8 89   29 8 24.1 98.40     LegendNANA
21:00 19.4 17.9 91   31 8 24.1 98.47     LegendNANA
22:00 19.9 16.6 81   2 16 24.1 98.55     Mostly Cloudy
23:00 19.0 14.9 77   5 16 24.1 98.64     LegendNANA

Notes on Data Quality.

Legend

  • E = Estimated
  • M = Missing
  • NA = Not Available*
  • [empty] = Indicates an unobserved value
Date modified: